Time,TemperatureF,DewpointF,PressureIn,WindDirection,WindDirectionDegrees,WindSpeedMPH,WindSpeedGustMPH,Humidity,HourlyPrecipIn,Conditions,Clouds,dailyrainin,SoftwareType,DateUTC
2013-07-09 00:01:00,76.8,70.9,30.04,SW,225,0.0,0.0,82,0.00,,,0.00,WUHU21623XXSP,2013-07-09 04:01:00,
2013-07-09 00:06:00,76.8,70.9,30.04,SW,225,0.0,0.0,82,0.00,,,0.00,WUHU21623XXSP,2013-07-09 04:06:00,
2013-07-09 00:11:00,76.8,70.9,30.04,West,270,0.0,0.0,82,0.00,,,0.00,WUHU21623XXSP,2013-07-09 04:11:00,
2013-07-09 00:16:00,76.8,70.9,30.04,West,270,0.0,0.0,82,0.00,,,0.00,WUHU21623XXSP,2013-07-09 04:16:00,
2013-07-09 00:21:00,76.8,70.9,30.04,WSW,247,0.0,0.0,82,0.00,,,0.00,WUHU21623XXSP,2013-07-09 04:21:00,
2013-07-09 00:26:00,76.6,70.7,30.04,WSW,247,0.0,0.0,82,0.00,,,0.00,WUHU21623XXSP,2013-07-09 04:26:00,
2013-07-09 00:31:00,76.6,70.7,30.05,WSW,247,0.0,0.0,82,0.00,,,0.00,WUHU21623XXSP,2013-07-09 04:31:00,
2013-07-09 00:36:00,76.6,70.7,30.05,WSW,247,0.0,0.0,82,0.00,,,0.00,WUHU21623XXSP,2013-07-09 04:36:00,
2013-07-09 00:41:00,76.6,70.7,30.05,NW,315,0.0,0.0,82,0.00,,,0.00,WUHU21623XXSP,2013-07-09 04:41:00,
2013-07-09 00:46:00,76.5,70.6,30.05,WSW,247,0.0,0.0,82,0.00,,,0.00,WUHU21623XXSP,2013-07-09 04:46:00,
2013-07-09 00:51:00,76.5,70.6,30.05,SW,225,1.1,1.1,82,0.00,,,0.00,WUHU21623XXSP,2013-07-09 04:51:00,
2013-07-09 00:56:00,76.5,70.6,30.04,SW,225,0.0,1.1,82,0.00,,,0.00,WUHU21623XXSP,2013-07-09 04:56:00,
2013-07-09 01:01:00,76.5,70.6,30.05,SW,225,0.0,0.0,82,0.00,,,0.00,WUHU21623XXSP,2013-07-09 05:01:00,
2013-07-09 01:10:00,76.5,70.6,30.04,SW,225,0.0,0.0,82,0.00,,,0.00,WUHU21623XXSP,2013-07-09 05:10:00,
2013-07-09 01:15:00,76.3,70.4,30.04,North,0,0.0,0.0,82,0.00,,,0.00,WUHU21623XXSP,2013-07-09 05:15:00,
2013-07-09 01:20:00,76.3,70.4,30.04,North,0,0.0,0.0,82,0.00,,,0.00,WUHU21623XXSP,2013-07-09 05:20:00,
2013-07-09 01:25:00,76.3,70.4,30.04,SSW,202,0.0,0.0,82,0.00,,,0.00,WUHU21623XXSP,2013-07-09 05:25:00,
2013-07-09 01:30:00,76.3,70.7,30.04,SW,225,0.0,0.0,83,0.00,,,0.00,WUHU21623XXSP,2013-07-09 05:30:00,
2013-07-09 01:35:00,76.3,70.7,30.04,SW,225,0.0,0.0,83,0.00,,,0.00,WUHU21623XXSP,2013-07-09 05:35:00,
2013-07-09 01:40:00,76.1,70.6,30.04,SW,225,0.0,0.0,83,0.00,,,0.00,WUHU21623XXSP,2013-07-09 05:40:00,
2013-07-09 01:45:00,76.1,70.6,30.04,WSW,247,0.0,0.0,83,0.00,,,0.00,WUHU21623XXSP,2013-07-09 05:45:00,
2013-07-09 01:50:00,76.1,70.6,30.03,West,270,0.0,0.0,83,0.00,,,0.00,WUHU21623XXSP,2013-07-09 05:50:00,
2013-07-09 01:55:00,76.1,70.6,30.03,WSW,247,0.7,0.7,83,0.00,,,0.00,WUHU21623XXSP,2013-07-09 05:55:00,
2013-07-09 02:00:00,76.1,70.6,30.03,WNW,292,0.0,0.7,83,0.00,,,0.00,WUHU21623XXSP,2013-07-09 06:00:00,
2013-07-09 02:05:00,76.1,70.6,30.03,WNW,292,0.0,0.0,83,0.00,,,0.00,WUHU21623XXSP,2013-07-09 06:05:00,
2013-07-09 02:10:00,76.1,70.6,30.03,WNW,292,0.0,0.0,83,0.00,,,0.00,WUHU21623XXSP,2013-07-09 06:10:00,
2013-07-09 02:15:00,75.9,70.4,30.03,WSW,247,0.0,0.0,83,0.00,,,0.00,WUHU21623XXSP,2013-07-09 06:15:00,
2013-07-09 02:20:00,75.9,70.4,30.03,South,180,0.0,0.0,83,0.00,,,0.00,WUHU21623XXSP,2013-07-09 06:20:00,
2013-07-09 02:25:00,75.7,70.2,30.03,West,270,0.0,0.0,83,0.00,,,0.00,WUHU21623XXSP,2013-07-09 06:25:00,
2013-07-09 02:30:00,75.7,70.6,30.03,WNW,292,3.1,3.1,84,0.00,,,0.00,WUHU21623XXSP,2013-07-09 06:30:00,
2013-07-09 02:35:00,75.7,70.6,30.03,North,0,0.0,3.1,84,0.00,,,0.00,WUHU21623XXSP,2013-07-09 06:35:00,
2013-07-09 02:40:00,75.7,70.6,30.03,NNW,337,0.0,3.1,84,0.00,,,0.00,WUHU21623XXSP,2013-07-09 06:40:00,
2013-07-09 02:45:00,75.7,70.6,30.03,SW,225,0.0,0.0,84,0.00,,,0.00,WUHU21623XXSP,2013-07-09 06:45:00,
2013-07-09 02:50:00,75.7,70.6,30.03,North,0,0.0,0.0,84,0.00,,,0.00,WUHU21623XXSP,2013-07-09 06:50:00,
2013-07-09 02:55:00,75.7,70.6,30.03,WSW,247,0.0,0.0,84,0.00,,,0.00,WUHU21623XXSP,2013-07-09 06:55:00,
2013-07-09 03:00:00,75.7,70.6,30.03,WNW,292,0.0,0.0,84,0.00,,,0.00,WUHU21623XXSP,2013-07-09 07:00:00,
2013-07-09 03:05:00,75.7,70.6,30.03,WNW,292,0.0,0.0,84,0.00,,,0.00,WUHU21623XXSP,2013-07-09 07:05:00,
2013-07-09 03:10:00,75.7,70.6,30.03,SW,225,0.0,0.0,84,0.00,,,0.00,WUHU21623XXSP,2013-07-09 07:10:00,
2013-07-09 03:15:00,75.7,70.6,30.04,NW,315,0.0,0.0,84,0.00,,,0.00,WUHU21623XXSP,2013-07-09 07:15:00,
2013-07-09 03:20:00,75.7,70.6,30.04,NW,315,0.0,0.0,84,0.00,,,0.00,WUHU21623XXSP,2013-07-09 07:20:00,
2013-07-09 03:25:00,75.7,70.6,30.04,NW,315,0.0,0.0,84,0.00,,,0.00,WUHU21623XXSP,2013-07-09 07:25:00,
2013-07-09 03:30:00,75.7,70.6,30.04,NW,315,0.0,0.0,84,0.00,,,0.00,WUHU21623XXSP,2013-07-09 07:30:00,
2013-07-09 03:35:00,75.7,70.6,30.04,WNW,292,0.0,0.0,84,0.00,,,0.00,WUHU21623XXSP,2013-07-09 07:35:00,
2013-07-09 03:40:00,75.6,70.4,30.04,WNW,292,0.0,0.0,84,0.00,,,0.00,WUHU21623XXSP,2013-07-09 07:40:00,
2013-07-09 03:45:00,75.6,70.4,30.04,WNW,292,0.0,0.0,84,0.00,,,0.00,WUHU21623XXSP,2013-07-09 07:45:00,
2013-07-09 03:52:00,75.6,70.4,30.04,West,270,0.0,4.9,84,0.00,,,0.00,WUHU21623XXSP,2013-07-09 07:52:00,
2013-07-09 03:57:00,75.6,70.4,30.04,West,270,0.0,4.9,84,0.00,,,0.00,WUHU21623XXSP,2013-07-09 07:57:00,
2013-07-09 04:02:00,75.4,70.3,30.04,North,0,0.0,0.0,84,0.00,,,0.00,WUHU21623XXSP,2013-07-09 08:02:00,
2013-07-09 04:07:00,75.4,70.3,30.04,West,270,0.0,0.0,84,0.00,,,0.00,WUHU21623XXSP,2013-07-09 08:07:00,
2013-07-09 04:12:00,75.4,70.3,30.04,WSW,247,0.0,0.0,84,0.00,,,0.00,WUHU21623XXSP,2013-07-09 08:12:00,
2013-07-09 04:17:00,75.4,70.3,30.04,NW,315,0.0,0.0,84,0.00,,,0.00,WUHU21623XXSP,2013-07-09 08:17:00,
2013-07-09 04:22:00,75.4,70.3,30.03,NW,315,0.0,0.0,84,0.00,,,0.00,WUHU21623XXSP,2013-07-09 08:22:00,
2013-07-09 04:27:00,75.2,70.1,30.04,North,0,0.0,0.0,84,0.00,,,0.00,WUHU21623XXSP,2013-07-09 08:27:00,
2013-07-09 04:32:00,75.0,69.9,30.04,North,0,0.0,0.0,84,0.00,,,0.00,WUHU21623XXSP,2013-07-09 08:32:00,
2013-07-09 04:37:00,75.0,69.9,30.03,North,0,0.0,0.0,84,0.00,,,0.00,WUHU21623XXSP,2013-07-09 08:37:00,
2013-07-09 04:42:00,75.0,69.9,30.04,SSW,202,0.0,0.0,84,0.00,,,0.00,WUHU21623XXSP,2013-07-09 08:42:00,
2013-07-09 04:47:00,75.0,69.9,30.04,SSW,202,0.0,0.0,84,0.00,,,0.00,WUHU21623XXSP,2013-07-09 08:47:00,
2013-07-09 04:52:00,75.0,69.9,30.04,SSW,202,0.0,0.0,84,0.00,,,0.00,WUHU21623XXSP,2013-07-09 08:52:00,
2013-07-09 04:57:00,75.0,69.9,30.04,SSW,202,0.0,0.0,84,0.00,,,0.00,WUHU21623XXSP,2013-07-09 08:57:00,
2013-07-09 05:02:00,74.8,69.7,30.04,SSW,202,0.0,0.0,84,0.00,,,0.00,WUHU21623XXSP,2013-07-09 09:02:00,
2013-07-09 05:07:00,74.8,69.7,30.04,SSW,202,0.0,0.0,84,0.00,,,0.00,WUHU21623XXSP,2013-07-09 09:07:00,
2013-07-09 05:13:00,74.8,69.7,30.04,SSW,202,0.0,0.0,84,0.00,,,0.00,WUHU21623XXSP,2013-07-09 09:13:00,
2013-07-09 05:18:00,74.7,69.5,30.04,SSW,202,0.0,0.0,84,0.00,,,0.00,WUHU21623XXSP,2013-07-09 09:18:00,
2013-07-09 05:23:00,74.5,69.4,30.04,WSW,247,0.0,0.0,84,0.00,,,0.00,WUHU21623XXSP,2013-07-09 09:23:00,
2013-07-09 05:28:00,74.5,69.4,30.04,WSW,247,0.0,0.0,84,0.00,,,0.00,WUHU21623XXSP,2013-07-09 09:28:00,
2013-07-09 05:33:00,74.5,69.7,30.04,WSW,247,0.0,0.0,85,0.00,,,0.00,WUHU21623XXSP,2013-07-09 09:33:00,
2013-07-09 05:38:00,74.3,69.5,30.04,WSW,247,0.0,0.0,85,0.00,,,0.00,WUHU21623XXSP,2013-07-09 09:38:00,
2013-07-09 05:43:00,74.3,69.5,30.04,WSW,247,0.0,0.0,85,0.00,,,0.00,WUHU21623XXSP,2013-07-09 09:43:00,
2013-07-09 05:47:00,74.1,69.3,30.05,SW,225,0.0,0.0,85,0.00,,,0.00,WUHU21623XXSP,2013-07-09 09:47:00,
2013-07-09 05:52:00,74.1,69.3,30.04,SSW,202,0.0,0.0,85,0.00,,,0.00,WUHU21623XXSP,2013-07-09 09:52:00,
2013-07-09 05:57:00,74.1,69.3,30.04,SSW,202,0.0,0.0,85,0.00,,,0.00,WUHU21623XXSP,2013-07-09 09:57:00,
2013-07-09 06:02:00,74.1,69.3,30.04,SSW,202,0.0,0.0,85,0.00,,,0.00,WUHU21623XXSP,2013-07-09 10:02:00,
2013-07-09 06:07:00,73.9,69.2,30.04,SSW,202,0.0,0.0,85,0.00,,,0.00,WUHU21623XXSP,2013-07-09 10:07:00,
2013-07-09 06:12:00,73.9,69.2,30.04,SSW,202,0.0,0.0,85,0.00,,,0.00,WUHU21623XXSP,2013-07-09 10:12:00,
2013-07-09 06:17:00,73.9,69.2,30.04,SSW,202,0.0,0.0,85,0.00,,,0.00,WUHU21623XXSP,2013-07-09 10:17:00,
2013-07-09 06:22:00,73.8,69.0,30.05,WSW,247,0.0,0.0,85,0.00,,,0.00,WUHU21623XXSP,2013-07-09 10:22:00,
2013-07-09 06:27:00,73.8,69.0,30.05,SW,225,0.0,0.0,85,0.00,,,0.00,WUHU21623XXSP,2013-07-09 10:27:00,
2013-07-09 06:32:00,73.6,68.8,30.05,SW,225,0.0,0.0,85,0.00,,,0.00,WUHU21623XXSP,2013-07-09 10:32:00,
2013-07-09 06:37:00,73.6,68.8,30.05,SW,225,0.0,0.0,85,0.00,,,0.00,WUHU21623XXSP,2013-07-09 10:37:00,
2013-07-09 06:42:00,73.6,68.8,30.05,SW,225,0.0,0.0,85,0.00,,,0.00,WUHU21623XXSP,2013-07-09 10:42:00,
2013-07-09 06:47:00,73.6,68.8,30.05,SW,225,0.0,0.0,85,0.00,,,0.00,WUHU21623XXSP,2013-07-09 10:47:00,
2013-07-09 06:52:00,73.4,68.6,30.05,SW,225,0.0,0.0,85,0.00,,,0.00,WUHU21623XXSP,2013-07-09 10:52:00,
2013-07-09 06:57:00,73.4,68.5,30.05,SW,225,0.0,0.0,85,0.00,,,0.00,WUHU21623XXSP,2013-07-09 10:57:00,
2013-07-09 07:02:00,73.2,68.8,30.05,SW,225,0.0,0.0,86,0.00,,,0.00,WUHU21623XXSP,2013-07-09 11:02:00,
2013-07-09 07:07:00,73.2,68.8,30.05,West,270,0.0,0.0,86,0.00,,,0.00,WUHU21623XXSP,2013-07-09 11:07:00,
2013-07-09 07:12:00,73.2,68.8,30.05,West,270,0.0,0.0,86,0.00,,,0.00,WUHU21623XXSP,2013-07-09 11:12:00,
2013-07-09 07:17:00,73.2,68.8,30.05,West,270,0.0,0.0,86,0.00,,,0.00,WUHU21623XXSP,2013-07-09 11:17:00,
2013-07-09 07:22:00,73.6,69.2,30.05,SW,225,0.0,0.0,86,0.00,,,0.00,WUHU21623XXSP,2013-07-09 11:22:00,
2013-07-09 07:27:00,73.6,69.2,30.05,SW,225,0.0,0.0,86,0.00,,,0.00,WUHU21623XXSP,2013-07-09 11:27:00,
2013-07-09 07:32:00,73.6,69.2,30.05,WSW,247,0.7,0.7,86,0.00,,,0.00,WUHU21623XXSP,2013-07-09 11:32:00,
2013-07-09 07:37:00,73.6,69.5,30.05,West,270,0.0,0.7,87,0.00,,,0.00,WUHU21623XXSP,2013-07-09 11:37:00,
2013-07-09 07:42:00,73.8,69.7,30.05,West,270,0.0,0.0,87,0.00,,,0.00,WUHU21623XXSP,2013-07-09 11:42:00,
2013-07-09 07:47:00,73.9,69.9,30.05,SSW,202,0.0,0.0,87,0.00,,,0.00,WUHU21623XXSP,2013-07-09 11:47:00,
2013-07-09 07:52:00,73.9,69.9,30.05,WNW,292,0.0,0.0,87,0.00,,,0.00,WUHU21623XXSP,2013-07-09 11:52:00,
2013-07-09 07:57:00,74.3,70.2,30.05,NW,315,0.0,0.0,87,0.00,,,0.00,WUHU21623XXSP,2013-07-09 11:57:00,
2013-07-09 08:02:00,74.5,70.4,30.05,SW,225,0.0,0.0,87,0.00,,,0.00,WUHU21623XXSP,2013-07-09 12:02:00,
2013-07-09 08:07:00,74.5,70.1,30.05,SW,225,0.0,0.0,86,0.00,,,0.00,WUHU21623XXSP,2013-07-09 12:07:00,
2013-07-09 08:12:00,74.7,70.2,30.05,WSW,247,0.4,0.4,86,0.00,,,0.00,WUHU21623XXSP,2013-07-09 12:12:00,
2013-07-09 08:17:00,74.7,70.2,30.05,South,180,0.0,0.4,86,0.00,,,0.00,WUHU21623XXSP,2013-07-09 12:17:00,
2013-07-09 08:22:00,74.8,70.4,30.05,NW,315,0.0,0.4,86,0.00,,,0.00,WUHU21623XXSP,2013-07-09 12:22:00,
2013-07-09 08:27:00,75.0,70.6,30.05,NW,315,0.0,0.0,86,0.00,,,0.00,WUHU21623XXSP,2013-07-09 12:27:00,
2013-07-09 08:32:00,75.0,70.6,30.05,West,270,0.0,0.0,86,0.00,,,0.00,WUHU21623XXSP,2013-07-09 12:32:00,
2013-07-09 08:37:00,75.4,70.9,30.05,SSW,202,3.6,3.6,86,0.00,,,0.00,WUHU21623XXSP,2013-07-09 12:37:00,
2013-07-09 08:42:00,75.6,71.1,30.05,SW,225,3.8,3.8,86,0.00,,,0.00,WUHU21623XXSP,2013-07-09 12:42:00,
2013-07-09 08:47:00,75.9,71.5,30.05,WNW,292,0.0,3.8,86,0.00,,,0.00,WUHU21623XXSP,2013-07-09 12:47:00,
2013-07-09 08:52:00,75.9,71.5,30.05,South,180,0.0,3.8,86,0.00,,,0.00,WUHU21623XXSP,2013-07-09 12:52:00,
2013-07-09 08:57:00,76.3,71.8,30.05,West,270,0.0,0.0,86,0.00,,,0.00,WUHU21623XXSP,2013-07-09 12:57:00,
2013-07-09 09:02:00,76.5,72.0,30.06,WNW,292,1.1,1.1,86,0.00,,,0.00,WUHU21623XXSP,2013-07-09 13:02:00,
2013-07-09 09:07:00,76.6,71.8,30.05,South,180,2.0,2.0,85,0.00,,,0.00,WUHU21623XXSP,2013-07-09 13:07:00,
2013-07-09 09:12:00,76.6,71.8,30.05,NW,315,0.0,2.0,85,0.00,,,0.00,WUHU21623XXSP,2013-07-09 13:12:00,
2013-07-09 09:17:00,76.8,72.0,30.06,WSW,247,0.0,2.0,85,0.00,,,0.00,WUHU21623XXSP,2013-07-09 13:17:00,
2013-07-09 09:22:00,76.8,72.0,30.05,NNW,337,0.0,0.0,85,0.00,,,0.00,WUHU21623XXSP,2013-07-09 13:22:00,
2013-07-09 09:27:00,77.2,72.0,30.05,NW,315,4.0,4.0,84,0.00,,,0.00,WUHU21623XXSP,2013-07-09 13:27:00,
2013-07-09 09:32:00,77.2,72.0,30.06,NW,315,0.0,4.0,84,0.00,,,0.00,WUHU21623XXSP,2013-07-09 13:32:00,
2013-07-09 09:37:00,77.5,72.3,30.06,SW,225,2.5,4.0,84,0.00,,,0.00,WUHU21623XXSP,2013-07-09 13:37:00,
2013-07-09 09:42:00,77.9,72.7,30.06,WNW,292,0.0,2.5,84,0.00,,,0.00,WUHU21623XXSP,2013-07-09 13:42:00,
2013-07-09 09:47:00,78.1,72.9,30.06,WSW,247,0.0,2.5,84,0.00,,,0.00,WUHU21623XXSP,2013-07-09 13:47:00,
2013-07-09 09:52:00,78.3,73.0,30.05,WNW,292,0.0,0.0,84,0.00,,,0.00,WUHU21623XXSP,2013-07-09 13:52:00,
2013-07-09 09:57:00,78.6,73.4,30.05,NW,315,0.0,0.9,84,0.00,,,0.00,WUHU21623XXSP,2013-07-09 13:57:00,
2013-07-09 10:02:00,78.8,73.6,30.06,SW,225,1.1,1.1,84,0.00,,,0.00,WUHU21623XXSP,2013-07-09 14:02:00,
2013-07-09 10:07:00,78.8,73.6,30.06,SW,225,1.1,1.1,84,0.00,,,0.00,WUHU21623XXSP,2013-07-09 14:07:00,
2013-07-09 10:12:00,79.3,73.4,30.05,North,0,2.5,2.5,82,0.00,,,0.00,WUHU21623XXSP,2013-07-09 14:12:00,
2013-07-09 10:17:00,79.5,73.6,30.05,SW,225,1.3,2.5,82,0.00,,,0.00,WUHU21623XXSP,2013-07-09 14:17:00,
2013-07-09 10:22:00,79.7,73.7,30.05,SW,225,1.3,1.3,82,0.00,,,0.00,WUHU21623XXSP,2013-07-09 14:22:00,
2013-07-09 10:27:00,79.9,73.9,30.05,WNW,292,0.0,1.3,82,0.00,,,0.00,WUHU21623XXSP,2013-07-09 14:27:00,
2013-07-09 10:32:00,79.9,73.9,30.05,West,270,0.0,0.0,82,0.00,,,0.00,WUHU21623XXSP,2013-07-09 14:32:00,
2013-07-09 10:37:00,79.9,73.9,30.05,South,180,0.4,0.4,82,0.00,,,0.00,WUHU21623XXSP,2013-07-09 14:37:00,
2013-07-09 10:42:00,80.2,73.9,30.05,NW,315,0.0,0.4,81,0.00,,,0.00,WUHU21623XXSP,2013-07-09 14:42:00,
2013-07-09 10:47:00,80.4,74.1,30.05,WNW,292,0.9,0.9,81,0.00,,,0.00,WUHU21623XXSP,2013-07-09 14:47:00,
2013-07-09 10:52:00,80.6,74.3,30.05,WNW,292,0.0,0.9,81,0.00,,,0.00,WUHU21623XXSP,2013-07-09 14:52:00,
2013-07-09 10:57:00,80.8,74.5,30.05,NW,315,3.6,3.6,81,0.00,,,0.00,WUHU21623XXSP,2013-07-09 14:57:00,
2013-07-09 11:02:00,80.8,74.2,30.05,North,0,0.0,3.6,80,0.00,,,0.00,WUHU21623XXSP,2013-07-09 15:02:00,
2013-07-09 11:07:00,80.6,74.0,30.05,NNW,337,1.3,3.6,80,0.00,,,0.00,WUHU21623XXSP,2013-07-09 15:07:00,
2013-07-09 11:12:00,80.5,73.9,30.05,SW,225,0.0,4.7,80,0.00,,,0.00,WUHU21623XXSP,2013-07-09 15:12:00,
2013-07-09 11:17:00,80.6,74.0,30.05,WNW,292,0.0,4.7,80,0.00,,,0.00,WUHU21623XXSP,2013-07-09 15:17:00,
2013-07-09 11:22:00,80.3,73.3,30.05,SW,225,4.9,4.9,79,0.00,,,0.00,WUHU21623XXSP,2013-07-09 15:22:00,
2013-07-09 11:27:00,80.3,73.3,30.05,NE,45,0.0,4.9,79,0.00,,,0.00,WUHU21623XXSP,2013-07-09 15:27:00,
2013-07-09 11:32:00,80.0,73.0,30.05,West,270,0.0,4.9,79,0.00,,,0.00,WUHU21623XXSP,2013-07-09 15:32:00,
2013-07-09 11:37:00,80.0,72.6,30.05,North,0,0.0,0.0,78,0.00,,,0.00,WUHU21623XXSP,2013-07-09 15:37:00,
2013-07-09 11:42:00,79.6,71.9,30.05,NW,315,0.0,0.0,77,0.00,,,0.00,WUHU21623XXSP,2013-07-09 15:42:00,
2013-07-09 11:47:00,79.4,71.7,30.05,NW,315,0.0,0.0,77,0.00,,,0.00,WUHU21623XXSP,2013-07-09 15:47:00,
2013-07-09 11:52:00,79.3,71.6,30.05,NW,315,1.8,1.8,77,0.00,,,0.00,WUHU21623XXSP,2013-07-09 15:52:00,
2013-07-09 11:57:00,79.5,71.8,30.05,NW,315,1.8,1.8,77,0.00,,,0.00,WUHU21623XXSP,2013-07-09 15:57:00,
2013-07-09 12:02:00,79.5,71.8,30.04,WNW,292,0.0,1.8,77,0.00,,,0.00,WUHU21623XXSP,2013-07-09 16:02:00,
2013-07-09 12:07:00,79.2,71.5,30.04,NNW,337,0.0,0.0,77,0.00,,,0.00,WUHU21623XXSP,2013-07-09 16:07:00,
2013-07-09 12:08:00,79.2,71.5,30.04,NNW,337,0.0,0.0,77,0.00,,,0.00,WUHU21623XXSP,2013-07-09 16:08:00,
2013-07-09 12:09:00,79.1,71.5,30.04,SW,225,0.0,0.0,77,0.00,,,0.00,WUHU21623XXSP,2013-07-09 16:09:00,
2013-07-09 12:11:00,79.2,71.5,30.05,WSW,247,0.0,0.0,77,0.00,,,0.00,WUHU21623XXSP,2013-07-09 16:11:00,
2013-07-09 12:12:00,79.2,71.5,30.05,WSW,247,0.0,0.0,77,0.00,,,0.00,WUHU21623XXSP,2013-07-09 16:12:00,
2013-07-09 12:13:00,78.9,70.9,30.04,SSW,202,1.3,1.3,76,0.00,,,0.00,WUHU21623XXSP,2013-07-09 16:13:00,
2013-07-09 12:14:00,78.8,70.8,30.04,SW,225,1.3,1.3,76,0.00,,,0.00,WUHU21623XXSP,2013-07-09 16:14:00,
2013-07-09 12:15:00,78.8,70.8,30.04,SW,225,1.3,1.3,76,0.00,,,0.00,WUHU21623XXSP,2013-07-09 16:15:00,